Probability
0 0 0 0 0 0 0 0 0 0 0 0 0 0 0 0 0 0 0 0 0 0 0 0 0 0 0 0 0 0 0 0 0 0 0 0 0 0 0 0 0 0 0 0
0 0 0 0 0 0 0 0 0 0 0 0 0 0 0 0 0 0 0 0 0 0 0 0 0 0 0 0 0 0 0 0 0 0 0 0 0 0 0 0 0 0 0 0
0 0 0 0 0 0 0 0 0 0 0 0 0 0 0 0 0 0 0 0 0 0 0 0 0 0 0 0 0 0 0 0 0 0 0 0 0 0 0 0 0 0 0 0
0 0 0 0 0 0 0 0 0 0 0 0 0 0 0 0 0 0 0 0 0 0 0 0 0 0 0 0 0 0 0 0 0 0 0 0 0 0 0 0 0 0 0 0
0 0 0 0 0 0 0 0 0 0 0 0 0 0 0 0 0 0 0 0 0 0 0 0 0 0 0 0 0 0 0 0 0 0 0 0 0 0 0 0 0 0 0 0
0 0 0 0 0 0 0 0 0 0 0 0 0 0 0 0 0 0 0 0 0 0 0 0 0 0 0 0 0 0 0 0 0 0 0 0 0 0 0 0 0 0 0 0
0 0 0 0 0 0 0 0 0 0 0 0 0 0 0 0 0 0 0 0 0 0 0 0 0 0 0 0 0 0 0 0 0 0 0 0 0 0 0 0 0 0 0 0
0 0 0 0 0 0 0 0 0 0 0 0 0 0 0 0 0 0 0 0 0 0 0 0 0 0 0 0 0 0 0 0 0 0 0 0 0 0 0 0 0 0 0 0
0 0 0 0 0 0 0 0 0 0 0 0 0 0 0 0 0 0 0 0 0 0 0 0 0 0 0 0 0 0 0 0 0 0 0 0 0 0 0 0 0 0 0 0
0 0 0 0 0 0 0 0 0 0 0 0 0 0 0 0 0 0 0 0 0 0 0 0 0 0 0 0 0 0 0 0 0 0 0 0 0 0 0 0 0 0 0 0
0 0 0 0 0 0 0 0 0 0 0 0 0 0 0 0 0 0 0 0 0 0 0 0 0 0 0 0 0 0 0 0 0 0 0 0 0 0 0 0 0 0 0 0
0 0 0 0 0 0 0 0 0 0 0 0 0 0 0 0 0 0 0 0 0 0 0 0 0 0 0 0 0 0 0 0 0 0 0 0 0 0 0 0 0 0 0 0
0 0 0 0 0 0 0 0 0 0 0 0 0 0 0 0 0 0 0 0 0 0 0 0 0 0 0 0 0 0 0 0 0 0 0 0 0 0 0 0 0 0 0 0
0 0 0 0 0 0 0 0 0 0 0 0 0 0 0 0 0 0 0 0 0 0 0 0 0 0 0 0 0 0 0 0 0 0 0 0 0 0 0 0 0 0 0 0
0 0 0 0 0 0 0 0 0 0 0 0 0 0 0 0 0 0 0 0 0 0 0 0 0 0 0 0 0 0 0 0 0 0 0 0 0 0 0 0 0 0 0 0
0 0 0 0 0 0 0 0 0 0 0 0 0 0 0 0 0 0 0 0 0 0 0 0 0 0 0 0 0 0 0 0 0 0 0 0 0 0 0 0 0 0 0 0
0 0 0 0 0 0 0 0 0 0 0 0 0 0 0 0 0 0 0 0 0 0 0 0 0 0 0 0 0 0 0 0 0 0 0 0 0 0 0 0 0 0 0 0
0 0 0 0 0 0 0 0 0 0 0 0 0 0 0 0 0 0 0 0 0 0 0 0 0 0 0 0 0 0 0 0 0 0 0 0 0 0 0 0 0 0 0 0
0 0 0 0 0 0 0 0 0 0 0 0 0 0 0 0 0 0 0 0 0 0 0 0 0 0 0 0 0 0 0 0 0 0 0 0 0 0 0 0 0 0 0 0
0 0 0 0 0 0 0 0 0 0 0 0 0 0 0 0 0 0 0 0 0 0 0 0 0 0 0 0 0 0 0 0 0 0 0 0 0 0 0 0 0 0 0 0
0 0 0 0 0 0 0 0 0 0 0 0 0 0 0 0 0 0 0 0 0 0 0 0 0 0 0 0 0 0 0 0 0 0 0 0 0 0 0 0 0 0 0 0
0 0 0 0 0 0 0 0 0 0 0 0 0 0 0 0 0 0 0 0 0 0 0 0 0 0 0 0 0 0 0 0 0 0 0 0 0 0 0 0 0 0 0 0
0 0 0 0 0 0 0 0 0 0 0 0 0 0 0 0 0 0 0 0 0 0 0 0 0 0 0 0 0 0 0 0 0 0 0 0 0 0 0 0 0 0 0 0
0 0 0 0 0 0 0 0 0 0 0 0 0 0 0 0 0 0 0 0 0 0 0 0 0 0 0 0 0 0 0 0 0 0 0 0 0 0 0 0 0 0 0 0
0 0 0 0 0 0 0 0 0 0 0 0 0 0 0 0 0 0 0 0 0 0 0 0 0 0 0 0 0 0 0 0 0 0 0 0 0 0 0 0 0 0 0 0
0 0 0 0 0 0 0 0 0 0 0 0 0 0 0 0 0 0 0 0 0 0 0 0 0 0 0 0 0 0 0 0 0 0 0 0 0 0 0 0 0 0 0 0
Wind_Speed
8 9 16 18 17 7 8 8 9 8 5 7 12 15 15 11 9 10 11 11 13 16 16 13 15 16 14 15 17 18 18 16 13 11 11 11 11 10 9 9 10 11 10 11
8 19 17 10 11 10 9 9 8 4 4 6 9 16 14 13 12 12 14 14 14 14 11 11 13 14 17 18 19 19 19 18 16 14 12 9 8 7 8 7 9 11 11 11
18 9 12 11 12 16 15 14 11 6 2 4 4 10 13 12 12 13 13 13 13 15 16 14 15 17 18 19 21 19 20 20 19 15 8 5 4 3 7 9 10 11 12 12
15 9 12 15 17 17 19 13 10 8 4 5 5 9 9 11 13 15 16 14 14 15 15 14 15 16 18 21 19 20 20 19 18 16 13 14 13 14 14 10 10 10 12 13
12 11 15 20 19 18 7 8 9 9 7 6 6 9 10 6 14 16 16 17 18 17 17 16 17 18 19 19 17 18 18 18 18 18 18 17 15 13 8 7 9 10 11 13
8 6 11 11 11 13 6 6 3 3 6 15 16 12 13 10 14 9 12 16 17 17 17 17 16 14 15 14 14 14 16 18 18 19 19 19 19 15 10 12 12 11 10 11
9 9 7 6 9 11 10 9 7 9 11 13 10 12 16 10 11 13 14 15 16 16 15 15 14 14 14 14 15 15 17 18 18 19 20 20 20 18 17 15 14 12 10 11
12 12 15 11 14 14 18 16 12 10 9 5 7 15 14 10 11 11 13 13 13 14 14 14 15 15 15 16 16 16 18 18 18 19 20 18 18 14 13 15 12 13 11 12
10 10 7 11 8 13 15 16 9 3 2 4 8 9 11 7 10 12 13 12 14 14 13 13 12 12 13 14 15 17 17 17 17 18 18 17 17 16 15 13 13 10 10 9
6 5 6 7 4 9 10 9 7 10 9 11 8 9 11 10 14 14 13 15 15 13 11 11 10 10 10 11 11 12 14 16 15 15 15 13 15 16 14 12 13 12 11 10
6 6 4 7 14 16 12 13 10 7 7 8 8 11 11 13 13 14 16 15 14 13 11 10 8 8 8 7 8 10 11 11 11 12 12 11 11 12 12 12 13 12 10 11
8 5 6 9 6 9 11 14 16 13 10 7 7 12 6 9 11 13 14 13 11 10 8 7 7 6 6 7 7 8 9 10 10 10 9 10 9 9 10 11 11 10 10 10
10 7 5 4 5 8 11 12 16 11 6 7 9 13 5 4 7 9 10 9 8 7 7 6 5 6 7 7 7 7 7 8 7 7 8 8 8 8 9 9 8 8 9 9
8 7 10 13 8 8 11 14 16 14 12 12 15 15 11 7 8 8 8 7 6 6 6 6 6 7 6 6 6 6 6 5 5 6 7 7 7 7 7 7 6 7 8 8
6 6 8 10 8 8 10 14 18 20 17 15 16 18 18 13 10 9 7 7 7 7 7 8 8 7 6 6 6 6 6 6 6 6 6 6 5 5 5 5 5 5 6 7
5 5 5 9 9 9 10 14 18 22 19 19 17 21 18 12 7 8 8 8 9 10 10 9 9 8 8 9 8 7 7 6 6 7 7 5 5 5 5 5 4 5 5 5
5 4 4 8 6 6 14 19 22 19 20 20 24 26 11 11 14 14 12 10 11 11 11 10 10 10 10 9 9 9 8 6 6 6 6 5 5 5 4 4 4 4 4 4
7 5 3 4 4 14 13 10 16 21 23 22 22 19 16 17 14 11 11 12 13 12 11 10 9 9 8 7 7 6 6 7 7 6 6 6 6 5 4 4 4 4 3 4
10 8 5 4 7 9 10 8 15 18 22 24 27 23 16 11 8 13 13 13 14 13 11 9 9 8 6 7 7 7 7 7 7 7 7 7 7 6 6 6 5 3 3 3
10 9 7 6 7 11 13 6 7 8 18 19 20 22 15 8 11 19 11 10 11 10 7 7 5 5 6 6 7 8 8 8 8 8 7 6 7 7 7 6 5 3 4 4
8 8 12 10 9 11 12 5 10 12 18 10 15 19 15 17 21 15 7 9 10 9 8 6 5 5 5 6 8 8 8 9 8 6 6 6 6 6 6 5 4 5 5 5
10 9 10 8 10 14 8 8 14 14 7 5 9 13 16 19 18 13 9 8 7 6 5 5 5 4 3 5 8 8 8 6 6 7 7 6 6 6 5 6 5 5 6 6
10 11 8 11 12 8 7 10 9 5 6 6 7 9 11 12 13 12 10 8 6 6 5 4 6 5 3 4 7 8 6 7 8 8 7 7 6 6 6 6 7 6 5 5
6 5 6 8 10 10 9 8 7 6 8 8 7 7 6 9 9 8 6 5 5 4 4 5 6 6 4 3 4 5 6 8 9 9 8 7 7 6 5 5 5 5 5 5
7 5 7 11 11 8 10 9 9 8 8 7 6 5 6 7 7 6 5 5 5 4 3 4 6 6 5 4 4 4 6 8 9 9 8 7 6 7 6 5 4 4 3 4
6 7 8 11 7 7 10 7 7 7 9 8 6 7 5 5 5 4 4 4 4 4 4 5 5 5 5 5 5 4 4 7 9 8 7 6 6 6 6 6 5 6 5 6
Wind_Direction
178 194 207 204 205 202 172 184 207 219 215 205 228 240 245 244 235 237 236 230 226 227 227 215 209 205 200 198 197 197 197 196 190 191 194 197 203 202 203 204 203 200 199 196
189 217 214 196 197 207 202 207 217 248 240 220 242 249 248 240 233 230 231 231 230 233 232 219 210 204 201 200 200 199 199 197 195 198 199 200 198 204 207 206 206 204 202 200
209 216 187 186 193 203 215 212 206 208 268 259 274 272 246 245 234 236 234 231 229 226 225 219 211 207 204 204 202 201 201 199 199 195 185 175 178 191 204 210 211 208 205 204
220 217 185 192 201 199 223 211 199 198 203 239 212 266 252 235 241 237 235 233 233 231 226 220 212 208 207 208 204 203 201 200 198 192 189 189 199 207 210 208 209 207 207 208
210 190 191 203 204 194 212 177 193 203 212 242 224 252 263 222 237 236 230 230 233 231 226 223 217 212 210 207 203 203 200 200 196 195 197 199 207 213 206 198 203 207 210 211
218 196 199 207 198 189 154 130 152 192 209 238 223 225 260 212 222 231 228 229 231 231 229 228 222 214 212 206 202 200 199 201 198 197 199 202 208 208 200 201 207 210 211 213
217 214 207 180 173 176 173 169 195 206 214 234 196 214 249 218 214 215 223 229 230 229 228 226 221 214 211 205 201 199 199 203 199 199 203 206 210 209 210 208 210 208 210 213
202 212 196 189 191 189 194 191 201 208 213 231 184 223 247 224 222 223 227 232 235 231 226 225 220 214 212 208 203 200 201 204 200 201 206 208 209 210 215 214 212 211 214 216
203 222 185 198 182 174 189 207 212 210 190 218 227 252 283 241 237 236 236 235 235 232 225 223 220 214 212 208 205 202 203 205 203 203 206 208 209 211 214 212 211 213 214 208
183 222 198 184 174 200 190 174 176 201 204 227 236 232 236 224 221 225 229 231 235 233 228 224 219 213 212 210 207 203 204 205 205 204 205 208 210 212 214 210 211 212 210 202
178 206 210 179 196 193 179 189 195 197 203 210 236 245 221 216 209 216 224 227 227 227 225 221 217 213 211 208 202 201 202 203 203 203 204 206 208 210 210 212 213 211 207 202
179 193 230 223 227 206 204 204 197 205 211 213 235 258 236 216 221 220 226 230 229 226 223 215 211 207 205 205 204 202 201 201 202 199 199 205 206 203 206 212 212 205 205 204
162 181 211 243 225 208 213 212 212 213 198 206 223 255 260 227 242 238 236 238 235 229 224 217 211 210 210 208 206 206 205 204 196 187 191 199 202 202 208 210 206 201 202 201
173 190 204 217 213 191 206 213 210 210 218 223 228 247 263 251 246 247 241 235 231 230 223 215 218 221 217 211 206 204 207 198 187 182 187 196 200 201 204 202 199 198 197 198
180 214 231 243 235 214 215 216 212 218 222 226 236 239 247 246 238 239 235 232 231 231 226 220 220 221 217 214 212 205 201 189 178 179 189 199 193 188 188 190 192 190 190 192
185 211 224 247 236 228 239 227 222 225 227 233 244 250 244 249 247 243 236 226 229 233 229 224 220 218 216 213 210 203 200 188 175 183 193 186 179 178 182 184 180 177 180 178
180 187 221 245 232 223 235 221 219 224 223 222 234 243 242 236 232 231 231 229 228 231 229 225 220 216 216 211 200 200 195 174 175 186 185 176 173 177 181 171 168 175 178 169
182 185 215 239 199 229 239 218 214 224 230 226 235 241 229 235 241 239 226 224 232 232 230 226 223 221 218 206 194 185 170 171 177 183 183 174 171 174 168 168 174 171 163 165
190 184 196 214 234 259 270 222 202 211 235 228 233 241 240 238 253 256 235 223 227 228 226 222 217 216 207 195 183 167 170 172 177 188 188 180 172 168 168 176 173 160 155 154
199 187 193 206 221 235 244 219 192 197 250 235 228 237 235 206 233 247 230 217 227 228 222 218 208 195 194 192 165 163 175 177 191 193 186 172 166 168 172 172 158 144 146 149
183 197 209 216 227 250 253 208 145 191 239 232 216 229 223 215 230 245 215 213 216 216 214 200 184 186 198 175 159 171 175 192 192 165 154 158 162 161 157 149 140 138 137 133
188 193 203 203 220 243 229 170 189 221 245 238 224 225 224 231 238 241 225 214 207 204 201 186 174 189 188 164 162 173 187 182 150 143 148 152 148 143 143 142 137 136 139 137
204 201 197 203 220 236 198 203 230 255 261 262 253 249 234 238 241 235 228 215 204 194 189 178 170 175 174 167 167 177 179 148 142 142 147 146 141 138 141 145 146 143 145 146
236 217 215 236 247 247 250 250 262 265 266 274 273 269 250 242 244 234 219 204 188 185 182 172 161 167 173 159 155 162 146 144 144 147 147 145 143 140 136 137 145 152 159 157
223 207 221 240 251 266 262 254 265 277 280 279 278 269 255 241 237 219 203 193 185 179 176 167 168 167 163 143 136 135 142 146 145 144 143 143 143 143 139 131 135 149 157 168
218 216 226 243 250 250 264 282 291 282 278 277 274 278 278 241 225 203 190 185 173 168 160 154 151 147 143 136 130 126 138 145 144 144 148 148 146 142 140 134 113 100 109 117